Location: Lake Almanor
(40.2485°N, 121.1442°W)
Time: 23:10:03
(UTC-08:00)

STARLINK-1094 - Pass Details

Date: 30 January 2020
Orbit: 349 x 350 km, 53.0° (Epoch: 22 February)

Event Time Altitude Azimuth Distance (km) Brightness Sun altitude
Rises 17:49:22 0° 319° (NW) 2,165 7.0 -6.0°
Reaches altitude 10° 17:51:52 10° 342° (NNW) 1,319 5.6 -6.5°
Maximum altitude 17:53:51 16° 24° (NNE) 1,009 4.6 -6.8°
Drops below altitude 10° 17:55:50 10° 67° (ENE) 1,316 4.9 -7.2°
Enters shadow 17:55:56 10° 68° (ENE) 1,340 4.9 -7.2°
